RH
70 60 59 65 32 30 26 27 31 28 42 73 70 67 56 49 59 64 65 67 72 74 76 78 81 81 79 76 75 71 67 64 68 64 60 59 61 61 62 62 59 57 60 59
88 60 58 70 64 44 52 65 33 43 66 70 63 55 60 62 66 66 66 66 71 72 73 78 79 80 77 76 74 70 70 68 65 65 61 62 62 63 66 64 62 63 58 58
83 77 59 85 94 75 80 78 75 60 87 73 68 66 69 68 64 62 62 66 69 69 70 74 75 76 76 72 70 70 69 66 66 64 63 64 60 60 62 65 67 67 63 59
87 91 83 98 83 76 84 85 82 82 78 73 69 63 58 65 70 68 62 58 58 62 64 66 70 72 70 68 69 69 66 65 66 66 62 64 61 61 65 64 66 64 64 61
95 95 99 83 84 93 94 96 92 90 82 72 61 58 57 62 67 68 64 59 57 52 58 64 74 76 74 72 70 68 68 66 64 64 63 65 66 68 66 67 67 64 59 62
91 96 96 96 93 94 94 94 92 88 86 85 65 61 58 67 68 65 64 64 62 59 57 66 74 76 77 75 74 71 68 65 62 60 61 64 64 69 69 65 62 56 57 61
93 93 90 97 99 94 82 97 95 88 86 82 90 82 70 67 65 62 64 66 61 62 57 67 71 75 76 75 76 70 69 67 64 62 63 63 67 67 67 64 61 64 60 61
90 81 89 96 87 86 100 97 91 86 84 80 71 68 67 64 67 67 67 66 68 67 62 65 71 74 75 75 72 69 71 72 69 68 60 60 67 66 64 64 66 66 64 63
95 97 99 100 100 100 99 99 94 87 76 76 76 74 67 66 66 65 67 69 69 71 64 62 72 73 75 71 69 70 73 74 72 67 63 64 66 68 68 65 67 67 65 67
87 93 96 99 95 96 97 97 91 81 76 76 80 73 71 68 67 65 66 72 74 71 64 72 72 70 68 68 68 70 72 71 69 69 68 66 60 62 67 73 72 66 68 71
71 74 68 88 91 88 87 84 87 80 80 79 76 74 72 74 71 68 71 72 73 75 63 66 73 71 69 68 70 70 70 68 69 67 69 70 64 68 65 66 64 68 67 66
92 86 89 95 85 88 92 95 91 89 88 78 75 73 70 74 70 69 76 76 78 78 68 61 64 67 70 66 65 68 69 67 69 72 72 69 70 79 94 82 85 83 81 71
84 78 87 85 81 84 93 96 95 94 94 93 84 74 72 75 73 74 74 80 82 84 83 63 60 63 64 65 64 66 68 69 70 75 73 76 76 80 88 89 91 88 85 85
76 75 82 88 92 80 77 77 79 90 95 96 95 90 80 81 79 76 77 80 78 81 82 84 81 80 66 65 62 65 67 94 67 69 71 80 71 75 70 82 86 86 91 80
82 77 82 70 70 76 76 74 74 87 95 95 95 95 95 94 91 90 82 77 78 80 83 83 86 88 86 75 66 72 70 70 69 76 78 79 72 73 74 78 78 79 83 92
71 69 72 76 74 75 78 86 88 93 94 95 95 96 96 96 95 90 86 86 93 95 86 86 87 85 87 89 71 70 70 84 84 76 80 78 76 77 79 80 79 79 81 78
62 68 70 73 76 77 82 88 90 84 84 92 93 86 85 83 89 96 95 91 88 93 92 90 90 79 83 89 89 89 89 87 88 77 78 77 79 79 79 80 80 79 79 80
69 71 70 70 71 73 73 77 76 75 85 81 80 80 86 92 94 92 92 90 89 90 96 90 91 86 81 88 91 88 91 96 96 95 93 90 84 79 82 82 81 81 78 91
62 68 67 67 67 70 72 72 73 70 77 80 80 86 87 88 87 88 85 94 98 95 97 96 92 87 90 91 92 94 90 90 87 88 86 94 89 82 86 88 84 81 79 84
54 56 62 63 65 68 66 67 72 72 78 75 74 76 75 88 92 98 77 85 89 92 88 94 90 89 89 96 94 93 94 96 90 87 90 91 91 90 88 92 85 86 91 86
60 56 58 64 66 72 73 78 87 82 80 81 77 89 88 76 81 83 80 82 80 79 84 89 91 93 92 97 96 98 98 95 96 98 99 100 100 98 96 96 95 98 100 96
60 62 63 63 64 64 80 77 79 90 84 91 94 93 88 75 74 76 72 77 81 88 83 81 84 94 92 96 94 98 98 96 98 98 97 99 100 100 100 100 100 100 100 100
62 62 61 61 64 62 79 82 93 89 91 92 87 79 76 80 76 79 81 69 73 82 77 78 89 91 94 94 93 95 95 96 98 98 99 100 100 100 100 100 100 100 100 100
67 64 61 62 73 74 75 80 74 73 84 71 73 76 71 78 78 70 69 77 86 91 82 83 86 88 91 88 93 93 95 97 97 99 97 99 100 100 100 100 100 100 100 100
70 67 66 69 71 74 74 70 68 68 67 65 64 63 63 62 72 71 72 74 80 78 76 83 86 87 85 88 86 88 92 93 94 98 97 100 100 100 100 100 100 100 100 100
72 73 74 76 74 70 67 65 68 69 65 70 66 70 72 68 68 71 71 76 72 78 77 82 87 87 85 83 84 84 80 78 81 83 91 91 96 95 100 100 100 100 100 100
77 88 77 75 72 74 71 67 68 69 70 74 70 70 73 74 74 71 75 75 76 79 85 90 86 87 86 87 84 84 83 83 87 85 90 98 95 100 100 100 100 100 100 100
Wind_Speed
12 11 3 5 7 15 17 11 14 7 4 9 12 14 13 4 10 14 17 20 20 20 19 20 20 19 19 18 17 18 18 18 16 15 14 14 13 13 13 13 12 12 11 11
4 6 11 17 16 10 8 5 3 17 5 11 8 9 16 17 5 11 14 16 17 18 20 21 21 20 18 18 18 19 19 18 17 16 15 15 14 14 13 13 12 12 12 12
4 6 5 11 12 14 17 15 4 4 5 13 10 12 18 16 15 14 8 10 14 17 17 17 19 19 21 20 19 19 18 17 17 17 17 16 15 15 15 15 13 13 12 12
4 5 6 6 12 17 20 17 15 12 12 12 12 5 16 18 16 14 13 11 3 11 13 16 15 16 15 18 19 18 17 17 17 17 17 16 16 16 15 14 14 13 12 12
4 4 8 12 12 8 6 11 15 13 14 15 10 5 3 19 17 13 12 11 8 7 11 14 17 15 15 16 17 18 18 18 18 18 18 17 17 16 15 13 12 12 12 13
4 5 7 9 14 8 6 8 14 15 15 18 17 6 6 22 19 15 13 11 11 8 7 16 18 18 18 19 19 19 19 18 19 19 19 19 17 16 14 13 13 11 12 13
9 5 7 16 19 9 3 4 11 11 13 14 9 5 16 16 17 15 12 13 14 9 7 15 18 18 18 18 19 16 15 16 16 17 17 16 15 14 15 14 13 13 13 12
6 7 8 18 9 9 4 6 8 11 12 12 12 13 15 16 17 16 19 20 15 8 8 13 16 17 17 19 15 15 16 16 15 16 13 13 17 15 15 15 15 14 13 11
7 5 7 9 8 7 8 5 8 12 13 13 14 16 17 17 17 16 14 12 14 15 7 9 13 13 15 13 16 17 18 17 16 15 14 15 16 16 13 15 12 12 11 11
1 8 7 11 13 14 11 9 12 13 14 15 15 16 17 16 16 17 18 18 15 11 5 7 10 10 10 13 16 17 18 18 16 16 15 15 12 12 12 12 11 11 11 11
6 13 4 12 15 15 15 15 16 15 15 16 16 16 16 16 18 17 17 18 16 14 3 7 9 9 10 15 16 15 15 14 15 13 15 14 13 12 12 14 14 14 12 11
5 12 5 9 16 18 15 16 18 16 16 16 18 17 17 16 16 17 17 18 18 17 12 4 8 8 10 14 16 15 14 12 11 10 11 11 11 9 6 6 10 9 11 12
6 9 11 11 15 18 17 16 14 14 15 16 17 16 18 15 17 18 18 19 19 18 19 8 4 9 10 12 14 15 13 13 10 10 10 11 11 11 10 3 6 10 12 14
13 6 11 17 10 16 17 16 19 17 14 13 14 15 16 15 17 19 19 17 17 18 19 19 15 12 1 8 11 12 12 8 11 11 11 10 11 10 10 10 10 10 8 13
14 12 9 10 13 16 16 16 18 17 14 16 15 16 16 17 18 17 16 17 16 19 19 18 17 17 15 5 8 9 10 9 8 7 8 8 9 9 9 9 9 8 8 6
10 11 11 12 11 13 16 18 17 15 13 13 13 15 14 13 14 16 17 18 19 17 18 18 17 17 16 13 5 8 7 9 6 8 8 8 8 8 8 9 9 9 9 10
10 10 8 8 8 9 10 9 12 13 11 11 11 10 12 12 12 14 15 14 14 15 16 17 18 17 17 16 9 3 4 7 7 7 7 9 9 10 9 9 9 9 9 9
3 1 2 3 5 7 8 7 8 10 10 11 10 9 9 11 12 12 11 11 11 12 15 16 16 16 17 18 14 5 2 4 6 4 4 5 8 8 8 8 8 8 8 7
3 5 6 6 7 7 8 7 5 7 9 9 8 9 9 10 11 11 10 11 12 13 14 14 16 16 16 18 15 9 6 2 4 4 6 5 6 8 7 6 7 7 7 6
5 5 5 6 5 5 7 5 3 2 5 6 8 10 11 10 10 9 11 11 12 9 12 13 13 13 13 14 15 10 9 9 4 1 3 3 4 6 6 6 7 7 7 7
9 9 8 6 7 5 4 4 1 2 5 7 8 7 8 9 10 10 11 9 13 14 13 11 11 9 9 11 9 8 9 8 8 6 3 1 1 1 3 4 5 5 5 5
8 9 10 6 5 6 4 3 5 4 5 5 3 5 7 10 10 8 8 9 8 11 9 8 9 12 10 12 7 7 6 7 8 7 8 8 5 2 1 1 2 2 3 3
9 8 9 7 5 0 5 5 4 5 4 5 6 8 7 6 7 8 8 10 8 9 8 7 10 11 10 7 8 7 8 7 7 7 6 6 6 4 3 3 3 3 2 1
9 8 7 4 2 4 4 3 4 5 3 5 6 6 7 6 6 5 7 8 8 9 7 7 9 10 10 6 6 6 5 7 7 6 5 5 3 3 4 4 5 4 4 4
8 6 3 1 3 3 4 3 3 5 6 6 7 7 7 5 5 7 7 8 9 9 8 8 10 10 6 6 5 5 5 6 5 5 5 4 5 4 3 4 4 4 4 2
6 3 1 3 3 3 3 2 3 3 4 5 5 6 5 5 6 6 7 8 9 9 8 8 8 7 7 7 7 7 6 5 5 5 4 5 5 5 5 5 4 4 4 4
1 2 3 3 3 3 3 3 4 5 5 4 6 6 6 6 7 7 8 8 7 8 8 8 7 8 7 7 7 7 7 6 6 6 5 4 4 3 4 4 4 5 4 4
Wind_Direction
300 268 264 41 195 175 191 187 183 179 114 9 358 352 349 323 173 176 178 178 178 178 180 180 181 182 181 178 174 172 173 177 177 169 170 167 168 170 167 170 171 171 165 167
264 93 120 71 36 112 61 20 18 124 100 2 358 22 38 32 124 170 183 189 184 180 179 181 181 181 175 173 172 174 176 177 170 167 168 171 170 170 170 172 171 171 174 172
121 342 138 42 8 70 78 49 21 97 352 339 2 27 38 34 39 41 36 182 186 191 189 184 185 177 178 173 168 176 173 169 170 166 171 174 171 171 176 176 170 178 176 176
308 286 98 81 35 71 74 57 47 41 13 347 324 300 57 34 24 17 11 10 314 201 193 190 183 182 176 170 171 170 172 170 168 169 173 171 172 177 176 176 177 180 179 183
330 60 114 36 5 338 344 52 18 17 5 358 342 151 97 20 5 355 347 338 318 309 209 178 171 172 167 172 170 169 175 173 173 171 172 171 175 176 175 173 179 184 183 183
323 37 57 348 327 309 275 62 360 4 7 8 14 49 359 342 344 344 345 334 318 300 223 176 176 164 166 172 179 187 179 175 172 174 173 175 174 173 173 178 180 182 186 191
2 79 74 339 336 306 71 3 324 358 10 9 22 339 305 326 341 337 344 337 319 286 237 181 169 172 176 178 189 181 170 170 175 178 174 169 166 169 171 177 180 187 189 190
12 41 33 340 343 48 331 306 338 352 11 0 350 341 341 345 341 346 348 341 333 334 236 174 170 174 180 189 175 168 163 168 171 175 172 166 166 172 175 177 183 186 189 190
31 65 279 324 353 354 353 328 359 18 10 1 354 351 347 345 348 349 350 345 345 327 305 173 171 183 188 176 168 167 169 171 171 172 173 168 169 170 173 183 183 185 191 193
102 22 345 27 360 7 4 2 36 32 19 13 4 355 349 353 356 353 350 349 350 343 219 174 175 187 181 163 168 169 174 176 171 172 171 172 175 173 176 179 183 187 192 194
59 19 337 31 15 10 6 11 31 35 25 18 12 7 358 358 359 359 354 351 352 352 250 187 168 162 158 167 165 174 176 172 175 177 174 175 181 180 183 191 188 186 193 189
15 347 334 29 16 13 18 19 23 25 26 25 17 14 10 11 6 5 2 359 0 1 348 178 167 166 166 168 172 173 176 177 176 170 177 177 176 174 46 202 183 179 164 185
341 336 41 24 28 20 24 21 25 24 24 20 24 19 18 16 15 13 12 10 8 7 5 356 189 176 172 172 178 179 177 175 170 175 179 177 177 180 178 111 163 175 178 183
6 1 24 23 16 25 32 33 37 35 25 23 17 20 22 21 23 24 19 10 15 18 19 16 22 24 8 182 181 180 179 180 176 179 179 181 183 186 187 182 183 189 195 192
47 58 59 43 39 31 29 30 32 26 19 23 22 23 17 15 22 23 19 22 24 29 24 15 11 5 352 296 182 173 172 165 179 182 178 179 184 186 184 188 193 184 176 187
56 66 63 55 45 34 29 22 20 14 13 5 19 24 23 20 22 24 21 19 25 22 16 18 14 360 351 343 238 170 169 137 160 178 158 178 182 186 190 189 194 193 193 192
60 53 51 49 35 26 30 24 15 1 2 11 2 6 23 31 34 33 24 16 20 20 14 15 9 5 3 352 310 144 144 139 154 189 181 190 183 191 195 194 196 200 202 183
30 46 1 339 341 338 338 347 353 342 350 346 348 9 16 8 14 17 13 20 16 16 12 10 2 2 8 6 352 351 185 180 166 181 160 199 218 188 187 191 199 202 200 179
330 313 307 306 306 301 307 323 343 339 353 355 16 25 32 23 10 3 9 15 14 8 359 359 355 5 5 6 2 1 5 124 174 170 189 193 200 194 186 193 201 209 200 176
320 303 299 299 304 303 315 326 319 352 32 16 12 15 10 4 357 354 9 22 16 1 348 353 357 2 360 357 1 7 11 19 23 115 180 194 204 219 207 191 189 194 189 189
314 309 305 305 308 317 304 319 320 38 47 35 26 8 353 358 360 356 8 5 359 356 349 352 3 358 352 354 351 8 9 10 40 10 14 66 141 223 247 211 184 181 189 190
315 308 295 299 303 313 1 32 82 72 48 30 7 2 358 0 358 2 6 5 345 347 342 356 358 353 352 339 354 353 8 5 20 24 21 15 8 5 325 246 191 188 186 176
305 303 292 292 296 257 107 81 75 61 38 23 16 6 359 348 346 350 347 355 345 346 342 353 347 340 337 346 349 355 353 360 21 23 21 2 348 338 338 18 53 61 63 196
304 302 287 294 151 156 136 88 55 42 31 14 16 5 358 349 343 344 334 331 336 335 335 340 337 336 334 345 346 349 344 3 17 4 9 345 303 334 11 16 27 20 28 22
298 301 279 229 165 125 108 68 50 21 7 2 1 359 353 355 343 335 334 333 332 331 330 332 330 331 337 338 339 337 5 4 345 347 349 318 327 347 6 3 356 15 6 337
316 316 32 66 103 107 95 64 40 24 1 352 350 352 347 344 343 338 337 336 335 333 334 336 336 335 335 337 337 337 340 339 340 339 334 331 338 339 335 341 337 339 329 334
236 152 139 115 98 89 69 49 24 16 10 358 339 345 348 350 347 344 348 345 341 340 341 339 340 342 338 335 334 335 334 335 333 325 317 318 313 295 306 318 317 300 276 259